User: anonymous   Login
Location: Carri�res
(48.9069°N, 2.1792°E)
Time: 02:46:36
(UTC+00:00)
Language:

Cosmos 2263 Rocket - Orbit

View from above orbital plane
View from above orbital plane
View from above satellite
View from above satellite

Ground track
Ground track

The orbit data is extracted from the following two-line orbital elements,

1 22803U 93059B   21102.53981670 -.00000022  00000-0  13129-4 0  9991
2 22803  70.9910 188.9633 0015255  56.2240 304.0334 14.16833554425668
Epoch (UTC): 12 April 2021 12:57:20
Eccentricity: 0.0015255
inclination: 70.9910°
perigee height: 825 km
apogee height: 847 km
right ascension of ascending node: 188.9633°
argument of perigee: 56.2240°
revolutions per day: 14.16833554
mean anomaly at epoch: 304.0334°
orbit number at epoch: 42566

The dashed part of the orbit path shows where the satellite is in the earth's shadow,  

DLR